Location: Bougoura
(13.1861°N, 5.0773°W)
Time: 17:06:19
(UTC+00:00)

CZ-2C R/B - Pass Details

Date: 18 September 2020
Orbit: 704 x 907 km, 98.1° (Epoch: 24 October)

Event Time Altitude Azimuth Distance (km) Brightness Sun altitude
Rises 19:28:01 0° 164° (SSE) 3,135 6.0 -17.6°
Reaches altitude 10° 19:30:15 10° 162° (SSE) 2,235 5.2 -18.1°
Maximum altitude 19:35:08 75° 78° (ENE) 790 2.8 -19.3°
Drops below altitude 10° 19:40:19 10° 353° (N) 2,356 5.7 -20.6°
Sets 19:42:42 0° 351° (N) 3,318 6.5 -21.2°
